Regional Weather Roundup
Issued by NWS Midland/Odessa, TX

Skip options and go directly to product.
Home | Oldest Version | Previous Version | Current Version | All | Text Only | Save Text | Print | Product List | Glossary On

Skip product version selection by date and time.   
662
ASUS44 KMAF 291010
RWRMAF
MIDLAND AREA WEATHER ROUNDUP
NATIONAL WEATHER SERVICE MIDLAND TX
500 AM CDT SUN MAR 29 2015

...IN SOUTHWEST TEXAS AND SOUTHEAST NEW MEXICO...

CITY           SKY/WX    TMP DP  RH WIND       PRES   REMARKS
ALPINE         CLEAR     61  17  18 W12       30.16F
ANDREWS        FAIR      58  37  47 SW12      29.99S
ARTESIA        CLEAR     50  21  32 CALM      30.02S
BIG SPRING     CLEAR     59  40  50 SE9       30.00F
CARLSBAD       CLEAR     54  30  40 N8        29.99S
DRYDEN           N/A     57  43  59 N9        30.00S
FORT STOCKTON  CLEAR     62  27  26 SW14      30.00F
GUAD PASS      CLEAR     60   8  12 S10       30.16F
HOBBS          CLEAR     48  32  53 SW7       30.02S
MARFA          CLEAR     39  27  60 NW3       30.17S
MIDLAND AIRPK  CLEAR     62  39  42 S10       29.99F
MIDLAND INTL   CLEAR     58  39  49 S7        29.98F
ODESSA         CLEAR     59  37  44 S8        29.99F
PECOS          CLEAR     48  36  62 CALM      29.98F
PRESIDIO       FAIR      59  31  34 N15       30.04F
SEMINOLE       CLEAR     49  37  61 W6        30.00F
SNYDER         CLEAR     57  38  49 S9        29.98F
WINK           CLEAR     49  39  68 SE8       29.97S
$$
...OTHER STATIONS IN TEXAS...

CITY           SKY/WX    TMP DP  RH WIND       PRES   REMARKS
ABILENE        CLEAR     66  38  35 S13       29.96S
AMARILLO       CLEAR     50  38  63 S14       29.97F
AUSTIN         CLEAR     57  53  86 S9        30.04F
BROWNSVILLE    CLEAR     64  61  90 S12       30.08F
CORPUS CHRISTI CLEAR     62  59  90 S12       30.07S
DALLAS FTW     CLEAR     56  46  69 SE7       29.99S
DEL RIO        CLEAR     60  45  57 E10       29.99F
EL PASO        CLEAR     68   6   9 E9        30.08S
HOUSTON INT    CLEAR     59  58  96 SE5       30.10S
LUBBOCK        CLEAR     57  33  40 SW13      29.96F
SAN ANGELO     CLEAR     60  40  47 S7        29.97F
SAN ANTONIO    CLEAR     58  53  84 S6        30.07S
WACO           CLEAR     53  48  83 SE8       30.01S
WICHITA FALLS  NOT AVBL
$$
...OTHER LOCATIONS IN NEW MEXICO...

CITY           SKY/WX    TMP DP  RH WIND       PRES   REMARKS
ALAMAGORDO     PTCLDY    59   9  13 CALM      30.11S
ALBUQUERQUE    CLEAR     50  14  23 SE7       30.17F
CANNON AFB     NOT AVBL
CLOVIS         CLEAR     48  27  43 SW12      30.00F
HOLLOMAN AFB   NOT AVBL
ROSWELL        PTCLDY    51  26  37 N8        30.02S
RUIDOSO        CLEAR     54   9  16 W9        30.25S
SANTA FE       CLEAR     41  16  36 SW3       30.19R
TRUTH OR CONSE CLEAR     59   3  10 NW10      30.15S
TUCUMCARI      CLEAR     55  24  30 W14       29.98R
$$

USA.gov is the U.S. government's official web portal to all federal, state and local government web resources and services.